• In Slovakia
  • List of Countries
  • For 7 days
  • Water Temperature
  • Satellite Maps
  • Weather Map
  • Weather Widgets
  • user-avatar
    Login

    Hourly Weather Uige

    Today, 23 July, Monday

    Time Temperature Precipitation Wind Pressure Humidity
    00:00 +21°C° 0 mm 1 mps 692 mmHg 48%
    01:00 +20°C° 0 mm 1 mps 692 mmHg 55%
    02:00 +20°C° 0 mm 1 mps 692 mmHg 59%
    03:00 +19°C° 0 mm 1 mps 692 mmHg 63%
    04:00 +19°C° 0 mm 1 mps 692 mmHg 67%
    05:00 +19°C° 0 mm 1 mps 692 mmHg 64%
    06:00 +20°C° 0 mm 1 mps 692 mmHg 60%
    07:00 +21°C° 0 mm 1 mps 693 mmHg 52%
    08:00 +24°C° 0 mm 2 mps 693 mmHg 41%
    09:00 +28°C° 0 mm 2 mps 694 mmHg 30%
    10:00 +33°C° 0 mm 3 mps 694 mmHg 19%
    11:00 +35°C° 0 mm 2 mps 694 mmHg 16%
    12:00 +36°C° 0 mm 2 mps 694 mmHg 14%
    13:00 +38°C° 0 mm 2 mps 693 mmHg 12%
    14:00 +38°C° 0 mm 2 mps 693 mmHg 12%
    15:00 +38°C° 0 mm 2 mps 692 mmHg 12%
    16:00 +38°C° 0 mm 2 mps 691 mmHg 11%
    17:00 +34°C° 0 mm 1 mps 691 mmHg 15%
    18:00 +31°C° 0 mm 1 mps 691 mmHg 18%
    19:00 +28°C° 0 mm 1 mps 691 mmHg 21%
    20:00 +26°C° 0 mm 1 mps 692 mmHg 26%
    21:00 +25°C° 0 mm 1 mps 692 mmHg 31%
    22:00 +23°C° 0 mm 1 mps 692 mmHg 37%
    23:00 +23°C° 0 mm 1 mps 692 mmHg 43%

    Tomorrow, 24 July, Tuesday

    Time Temperature Precipitation Wind Pressure Humidity
    00:00 +22°C° 0 mm 1 mps 692 mmHg 49%
    01:00 +21°C° 0 mm 1 mps 692 mmHg 55%
    02:00 +20°C° 0 mm 1 mps 692 mmHg 58%
    03:00 +20°C° 0 mm 1 mps 692 mmHg 62%
    04:00 +19°C° 0 mm 1 mps 691 mmHg 66%
    05:00 +20°C° 0 mm 1 mps 692 mmHg 61%
    06:00 +20°C° 0 mm 1 mps 692 mmHg 57%
    07:00 +21°C° 0 mm 1 mps 692 mmHg 52%
    08:00 +25°C° 0 mm 1 mps 693 mmHg 41%
    09:00 +29°C° 0 mm 2 mps 694 mmHg 30%
    10:00 +34°C° 0 mm 3 mps 694 mmHg 18%
    11:00 +36°C° 0 mm 2 mps 694 mmHg 16%
    12:00 +37°C° 0 mm 2 mps 694 mmHg 14%
    13:00 +39°C° 0 mm 2 mps 693 mmHg 12%
    14:00 +39°C° 0 mm 2 mps 692 mmHg 12%
    15:00 +38°C° 0 mm 2 mps 692 mmHg 12%
    16:00 +38°C° 0 mm 2 mps 691 mmHg 11%
    17:00 +34°C° 0 mm 1 mps 691 mmHg 16%
    18:00 +31°C° 0 mm 1 mps 691 mmHg 20%
    19:00 +28°C° 0 mm 1 mps 691 mmHg 24%
    20:00 +26°C° 0 mm 1 mps 692 mmHg 32%
    21:00 +25°C° 0 mm 1 mps 692 mmHg 41%
    22:00 +23°C° 0 mm 1 mps 693 mmHg 49%
    23:00 +22°C° 0 mm 1 mps 692 mmHg 58%

    Day after tomorrow, 25 July, Wednesday

    Time Temperature Precipitation Wind Pressure Humidity
    00:00 +21°C° 0 mm 1 mps 692 mmHg 67%
    01:00 +20°C° 0 mm 1 mps 692 mmHg 76%
    02:00 +20°C° 0 mm 1 mps 692 mmHg 80%
    03:00 +17°C° 0 mm 0 mps 691 mmHg 84%
    04:00 +17°C° 0 mm 0 mps 691 mmHg 87%
    05:00 +17°C° 0 mm 0 mps 691 mmHg 82%
    06:00 +20°C° 0 mm 1 mps 692 mmHg 77%
    07:00 +20°C° 0 mm 1 mps 692 mmHg 71%
    08:00 +24°C° 0 mm 1 mps 693 mmHg 54%
    09:00 +28°C° 0 mm 2 mps 693 mmHg 36%
    10:00 +33°C° 0 mm 3 mps 694 mmHg 18%
    11:00 +35°C° 0 mm 2 mps 694 mmHg 16%
    12:00 +37°C° 0 mm 2 mps 693 mmHg 14%
    13:00 +39°C° 0 mm 2 mps 693 mmHg 11%
    14:00 +39°C° 0 mm 1 mps 692 mmHg 11%
    15:00 +39°C° 0 mm 1 mps 692 mmHg 11%
    16:00 +39°C° 0 mm 1 mps 691 mmHg 11%
    17:00 +34°C° 0 mm 1 mps 691 mmHg 15%
    18:00 +31°C° 0 mm 1 mps 691 mmHg 19%
    19:00 +28°C° 0 mm 1 mps 691 mmHg 23%
    20:00 +26°C° 0 mm 1 mps 692 mmHg 32%
    21:00 +25°C° 0 mm 1 mps 692 mmHg 41%
    22:00 +23°C° 0 mm 1 mps 693 mmHg 51%
    23:00 +22°C° 0 mm 1 mps 693 mmHg 60%

    26 July, Thursday

    Time Temperature Precipitation Wind Pressure Humidity
    00:00 +21°C° 0 mm 1 mps 692 mmHg 70%
    01:00 +20°C° 0 mm 1 mps 692 mmHg 79%
    02:00 +20°C° 0 mm 1 mps 692 mmHg 84%
    03:00 +19°C° 0 mm 1 mps 692 mmHg 88%
    04:00 +19°C° 0 mm 1 mps 691 mmHg 93%
    05:00 +19°C° 0 mm 1 mps 692 mmHg 92%
    06:00 +19°C° 0 mm 1 mps 692 mmHg 91%
    07:00 +17°C° 0 mm 0 mps 693 mmHg 90%
    08:00 +23°C° 0 mm 1 mps 694 mmHg 70%
    09:00 +28°C° 0 mm 1 mps 695 mmHg 50%
    10:00 +32°C° 0 mm 1 mps 696 mmHg 31%
    11:00 +34°C° 0 mm 1 mps 695 mmHg 25%
    12:00 +36°C° 0 mm 1 mps 695 mmHg 20%
    13:00 +39°C° 0 mm 1 mps 694 mmHg 14%
    14:00 +37°C° 0 mm 1 mps 693 mmHg 14%
    15:00 +37°C° 0 mm 1 mps 692 mmHg 15%
    16:00 +36°C° 0 mm 1 mps 692 mmHg 15%
    17:00 +34°C° 0 mm 2 mps 692 mmHg 21%
    18:00 +30°C° 0 mm 2 mps 692 mmHg 27%
    19:00 +27°C° 0 mm 2 mps 692 mmHg 33%
    20:00 +26°C° 0 mm 2 mps 692 mmHg 46%
    21:00 +24°C° 0 mm 2 mps 693 mmHg 58%
    22:00 +23°C° 0 mm 2 mps 693 mmHg 71%
    23:00 +21°C° 0 mm 2 mps 693 mmHg 76%

    27 July, Friday

    Time Temperature Precipitation Wind Pressure Humidity
    00:00 +20°C° 0 mm 2 mps 693 mmHg 81%
    01:00 +19°C° 0 mm 2 mps 693 mmHg 86%
    02:00 +19°C° 0 mm 2 mps 693 mmHg 86%
    03:00 +19°C° 0 mm 2 mps 692 mmHg 85%
    04:00 +19°C° 0 mm 2 mps 692 mmHg 85%
    05:00 +19°C° 0 mm 2 mps 693 mmHg 84%
    06:00 +20°C° 0 mm 1 mps 693 mmHg 84%
    07:00 +20°C° 0 mm 1 mps 693 mmHg 83%
    08:00 +23°C° 0 mm 1 mps 694 mmHg 68%
    09:00 +26°C° 0 mm 2 mps 694 mmHg 53%
    10:00 +29°C° 0 mm 2 mps 695 mmHg 38%
    11:00 +31°C° 0 mm 2 mps 695 mmHg 32%
    12:00 +35°C° 0 mm 2 mps 694 mmHg 26%
    13:00 +37°C° 0 mm 2 mps 693 mmHg 19%
    14:00 +37°C° 0 mm 2 mps 693 mmHg 18%
    15:00 +36°C° 0 mm 2 mps 692 mmHg 17%
    16:00 +35°C° 0 mm 1 mps 691 mmHg 16%
    17:00 +33°C° 0 mm 1 mps 691 mmHg 21%
    18:00 +30°C° 0 mm 1 mps 691 mmHg 25%
    19:00 +27°C° 0 mm 1 mps 691 mmHg 29%
    20:00 +26°C° 0 mm 1 mps 692 mmHg 36%
    21:00 +25°C° 0 mm 1 mps 692 mmHg 42%
    22:00 +23°C° 0 mm 1 mps 693 mmHg 48%
    23:00 +22°C° 0 mm 1 mps 692 mmHg 57%

    28 July, Saturday

    Time Temperature Precipitation Wind Pressure Humidity
    00:00 +21°C° 0 mm 1 mps 692 mmHg 65%
    01:00 +20°C° 0 mm 1 mps 692 mmHg 73%
    02:00 +20°C° 0 mm 1 mps 692 mmHg 78%
    03:00 +19°C° 0 mm 1 mps 692 mmHg 83%
    04:00 +19°C° 0 mm 1 mps 691 mmHg 88%
    05:00 +19°C° 0 mm 1 mps 692 mmHg 87%
    06:00 +18°C° 0 mm 2 mps 692 mmHg 86%
    07:00 +18°C° 0 mm 2 mps 693 mmHg 85%
    08:00 +21°C° 0 mm 2 mps 693 mmHg 71%
    09:00 +25°C° 0 mm 2 mps 694 mmHg 57%
    10:00 +28°C° 0 mm 2 mps 694 mmHg 42%
    11:00 +30°C° 0 mm 2 mps 694 mmHg 36%
    12:00 +34°C° 0 mm 2 mps 693 mmHg 30%
    13:00 +36°C° 0 mm 2 mps 693 mmHg 23%
    14:00 +36°C° 0 mm 2 mps 692 mmHg 23%
    15:00 +35°C° 0 mm 2 mps 692 mmHg 22%
    16:00 +35°C° 0 mm 2 mps 691 mmHg 22%
    17:00 +32°C° 0 mm 2 mps 691 mmHg 26%
    18:00 +29°C° 0 mm 2 mps 692 mmHg 31%
    19:00 +27°C° 0 mm 2 mps 692 mmHg 36%
    20:00 +26°C° 0 mm 2 mps 692 mmHg 44%
    21:00 +24°C° 0 mm 2 mps 693 mmHg 52%
    22:00 +21°C° 0 mm 2 mps 693 mmHg 60%
    23:00 +21°C° 0 mm 2 mps 692 mmHg 67%
    Show more